Location: Central Falls
(41.8900°N, 71.3929°W)
Time: 04:25:52
(UTC+00:00)

Vanguard 2 Rocket - Pass Details

Date: 04 December 2023
Orbit: 555 x 3309 km, 32.9° (Epoch: 01 March)

Event Time Altitude Azimuth Distance (km) Brightness Sun altitude
Rises 18:22:59 0° 222° (SW) 6,004 12.4 21.2°
Reaches altitude 10° 18:26:45 10° 216° (SW) 5,308 12.9 20.9°
Maximum altitude 18:42:30 46° 151° (SSE) 3,946 10.7 19.5°
Drops below altitude 10° 19:00:44 10° 87° (E) 6,105 10.8 17.6°
Sets 19:05:25 0° 82° (E) 6,940 11.0 17.1°
